Location: Billingford
(52.7333°N, 0.9833°E)
Time: 23:40:12
(UTC+00:00)

Daily predictions for brighter satellites

Satellite Brightness Start Highest point End
(mag) Time Altitude Azimuth Time Altitude Azimuth Time Altitude Azimuth
SAR-Lupe-2 3.8 21:05:48 10° S 21:09:23 72° WSW 21:13:01 10° NNW
ARIANE 6 FM1 Upper Stage 4.3 21:08:08 10° WNW 21:11:31 25° SW 21:14:56 10° S
Cosmos 1328 Rocket 3.6 21:09:21 10° S 21:13:45 88° W 21:18:12 10° N
USA 59 Rocket 2.1 21:12:19 10° NNW 21:14:21 16° NNE 21:16:35 10° ENE
Cosmos 2297 Rocket 2.3 21:09:40 10° SSW 21:15:21 87° WNW 21:21:04 10° NNE
Cosmos 614 Rocket 4.0 21:10:15 10° SSW 21:15:24 75° ESE 21:20:34 10° NNE
Ariane Rocket 3.1 21:10:56 10° SSE 21:16:01 86° ENE 21:21:09 10° NNW
Cosmos 1470 Rocket 3.6 21:14:47 10° NNW 21:19:08 83° W 21:23:29 10° S
GP-B 4.1 21:15:56 10° NNE 21:19:51 31° E 21:23:45 10° SE
SPOT 3 Rocket 3.6 21:15:38 10° SSE 21:20:46 82° WSW 21:25:59 10° NNW
Cosmos 1758 3.3 21:18:06 10° NNW 21:21:52 72° W 21:25:33 10° S
Cosmos 2084 Rocket 3.5 21:20:49 10° NW 21:24:59 68° SW 21:29:03 10° SE
ATLAS CENTAUR R/B 2.0 21:23:45 10° NW 21:27:22 39° SW 21:30:53 10° SSE
Helios 1A 4.1 21:25:21 10° N 21:29:09 44° WNW 21:32:54 10° SW
Meteor 1-13 Rocket 4.4 21:24:08 10° S 21:30:02 75° E 21:35:54 10° NNE
Cosmos 1933 Rocket 3.7 21:25:52 10° N 21:30:15 65° ENE 21:34:35 10° SSE
Cosmos 2173 Rocket 4.2 21:24:07 10° NNW 21:30:21 77° W 21:36:26 10° S
Cosmos 1992 Rocket 4.2 21:27:42 10° NNW 21:32:54 71° WSW 21:38:02 10° SSE
SL-16 R/B 2.3 21:30:22 10° NNW 21:36:04 87° WSW 21:41:38 10° SSE
NOSS 3 (A) 4.2 21:34:24 10° NW 21:36:42 74° NE 21:39:33 11° SE
PSLV R/B 3.8 21:33:29 10° S 21:36:44 59° WSW 21:40:01 10° NNW
Cosmos 2344 4.2 21:32:05 10° NW 21:39:43 68° NE 21:49:43 10° ESE
Terra 3.6 21:35:58 10° SSW 21:39:57 27° W 21:43:57 10° NW
Cosmos 1515 Rocket 3.6 21:36:07 10° S 21:40:32 80° E 21:45:00 10° NNE
Cosmos 1727 Rocket 4.4 21:34:30 10° SSW 21:40:37 65° WNW 21:46:48 10° N
Cosmos 1733 Rocket 4.5 21:37:25 10° N 21:41:10 26° ENE 21:44:52 10° SE
Meteor 1-23 Rocket 4.4 21:36:26 10° S 21:41:53 59° E 21:47:24 10° NNE
Cosmos 2233 Rocket 4.2 21:37:13 10° N 21:43:31 66° ENE 21:49:37 11° SSE
Cosmos 2227 Rocket 2.2 21:38:17 10° SSW 21:43:54 78° ESE 21:49:35 10° NNE
COSMOS 2455 4.0 21:38:55 10° NW 21:44:20 36° WSW 21:49:43 10° S
Cosmos 1869 Rocket 3.8 21:40:11 10° N 21:44:34 61° ENE 21:48:34 12° SSE
RESURS DK-1 2.4 21:41:04 10° SSW 21:44:57 53° ESE 21:48:53 10° NE
Cosmos 2100 Rocket 4.5 21:39:59 10° NNW 21:46:02 59° W 21:52:02 10° S
Meteor 1-16 Rocket 4.5 21:40:59 10° N 21:46:44 66° ENE 21:52:16 12° SSE
Cosmos 2263 Rocket 2.5 21:43:09 10° S 21:48:33 48° ESE 21:54:01 10° NE
Iridium 51 4.0 21:45:57 10° N 21:49:41 87° E 21:53:07 11° S
Okean O Rocket 4.2 21:49:10 10° WSW 21:51:24 14° W 21:53:40 10° NW
Okean 2 4.5 21:50:02 12° SE 21:52:55 27° E 21:56:13 10° NNE
Cosmos 1725 Rocket 4.2 21:49:08 10° NNW 21:55:26 78° W 22:01:44 10° S
Cosmos 1943 3.6 21:51:56 10° NNW 21:57:35 59° NE 22:03:04 11° SE
ASTEX 1 4.5 21:54:09 10° NNE 21:58:35 31° E 22:02:22 13° SE
Cosmos 1437 Rocket 2.6 21:56:14 10° SSW 21:59:46 78° WNW 22:03:23 10° N
Cosmos 921 Rocket 3.9 21:58:42 10° SW 22:02:51 50° WNW 22:07:08 10° NNE
SeaSat 1 4.3 22:00:21 10° E 22:04:19 25° NE 22:08:18 10° NNW
Cosmos 1763 Rocket 4.2 22:02:41 10° NNW 22:07:41 46° NE 22:12:23 11° SE
Geosat 4.0 22:03:11 10° NE 22:08:11 63° ESE 22:13:08 10° SSW
Cosmos 2219 3.3 22:03:45 10° SSW 22:09:22 59° ESE 22:15:02 10° NE
COBE Rocket 4.0 22:05:09 10° NNE 22:10:15 74° ESE 22:15:11 10° S
MetOp-A 4.3 22:10:28 13° SE 22:14:30 50° ENE 22:18:50 10° N
Cosmos 1603 4.5 22:09:37 10° NNW 22:15:03 47° NE 22:20:27 10° ESE
USA 290 2.5 22:14:12 15° S 22:16:41 49° ESE 22:19:48 10° NE
Meteor 2-16 Rocket 4.5 22:12:54 11° S 22:18:47 72° E 22:24:51 10° NNE
Cosmos 2082 3.9 22:13:20 10° S 22:18:52 54° ESE 22:24:26 10° NE
USA 305 2.1 22:15:26 10° WSW 22:19:10 66° SSE 22:22:11 10° ENE
Cosmos 2123 Rocket 4.4 22:13:21 10° SSW 22:19:34 65° WNW 22:25:49 10° N
SL-8 R/B 4.5 22:15:24 10° W 22:19:40 33° SSW 22:22:53 15° SSE
Cosmos 2292 Rocket 3.5 22:18:13 18° SSE 22:19:49 32° E 22:22:29 10° NNE
SWAS 4.5 22:17:22 10° NNW 22:21:28 68° NE 22:24:44 15° SE
Okean 1-7 4.4 22:19:41 14° SE 22:22:14 24° E 22:25:34 10° NE
Cosmos 2237 Rocket 4.5 22:21:19 10° WNW 22:24:19 15° W 22:27:18 10° SW
ARIANE 5 R/B 3.0 22:20:49 15° SE 22:24:21 57° ENE 22:28:46 10° N
SL-4 R/B 3.1 22:21:52 10° SSW 22:25:11 23° SE 22:28:25 10° E
Cosmos 1953 2.6 22:24:06 10° NNW 22:27:47 56° W 22:30:44 15° S
Cosmos 1140 Rocket 3.5 22:26:49 12° S 22:31:31 60° ESE 22:36:34 10° NNE
Cosmos 2061 Rocket 4.3 22:27:45 10° NNW 22:33:59 64° W 22:39:36 13° S
Spot 4 4.3 22:30:33 15° SE 22:34:24 55° ENE 22:39:08 10° N
NOSS 3-1 (C) 4.0 22:28:26 10° NW 22:35:18 85° SW 22:43:29 12° SE
Lacrosse 4 Rocket 3.6 22:34:03 10° WNW 22:36:34 15° WSW 22:39:03 10° SW
Cosmos 1703 3.3 22:34:57 20° SSE 22:37:08 51° E 22:40:32 10° NNE
Cosmos 1892 2.6 22:43:00 23° SSE 22:44:29 44° E 22:47:23 10° NNE
Cosmos 1023 Rocket 4.4 22:40:15 10° SSW 22:45:18 81° ESE 22:50:24 10° NNE
CZ-4C R/B 2.8 22:47:11 10° NNE 22:50:28 89° WNW 22:52:42 19° SSW
DNEPR-1 R/B 4.0 22:46:14 10° SW 22:52:01 84° NW 22:56:49 10° NE
USA 307 4.4 22:54:11 15° SE 22:54:11 15° SE 22:56:00 10° E
Cosmos 407 Rocket 3.7 22:50:55 17° S 22:54:43 54° ESE 22:59:42 10° NNE
GP-B 4.4 22:52:58 10° NNW 22:56:57 34° WNW 23:00:54 10° SW
Cosmos 2228 Rocket 3.1 22:54:32 19° S 22:57:42 70° E 23:02:08 10° NNE
Cosmos 1844 Rocket 3.4 22:54:47 18° SSE 22:58:26 37° ESE 23:03:36 10° NE
IRIDIUM 104 4.5 22:55:45 15° SSW 23:00:06 74° W 23:05:21 10° N
Cosmos 2251 Rocket 4.1 22:59:04 19° SSE 23:02:34 43° ESE 23:07:38 10° NE
Cosmos 1844 4.4 22:59:50 18° SSE 23:03:14 36° ESE 23:08:16 10° NE
USA 59 Rocket 0.2 23:00:37 10° NW 23:03:53 55° NE 23:08:05 10° ESE
Landsat 5 3.6 23:02:56 10° NNE 23:07:12 65° ESE 23:09:56 21° S
GRACE-FO 1 4.5 23:05:54 22° S 23:07:59 77° W 23:11:29 10° N
Cosmos 1707 Rocket 3.5 23:05:01 18° SSW 23:08:10 85° W 23:12:30 10° N
GRACE-FO 2 4.5 23:06:18 22° S 23:08:24 76° W 23:11:53 10° N
ATLAS 3B R/B 3.9 23:02:04 10° NW 23:09:44 50° NNE 23:17:16 10° E
Cosmos 540 Rocket 3.4 23:05:48 10° NNW 23:10:56 78° WSW 23:14:32 20° SSE
ALOS 2 2.6 23:14:27 21° SSE 23:17:20 84° WSW 23:21:47 10° NNW
Cosmos 1733 Rocket 3.9 23:14:51 10° NNW 23:19:00 42° W 23:21:58 17° SSW
SL-16 R/B 4.1 23:15:42 10° WNW 23:19:21 18° W 23:23:02 10° SW
Cosmos 468 Rocket 3.9 23:16:35 10° NNW 23:21:47 86° WSW 23:25:26 20° SSE
Cosmos 841 Rocket 4.0 23:17:46 10° NNW 23:22:59 55° ENE 23:27:33 13° SE
NOSS 3-1 (A) 4.0 23:16:45 10° NW 23:23:40 85° SW 23:32:13 10° SE
Cosmos 1464 Rocket 4.1 23:20:04 10° NNW 23:26:23 76° W 23:31:00 19° S
Cosmos 2227 Rocket 4.2 23:23:41 10° W 23:28:33 29° NW 23:33:26 10° NNE
ATLAS 2AS CENTAUR R/B 3.7 23:25:05 18° SSE 23:29:09 30° ESE 23:35:03 10° ENE
CZ-2C R/B 4.2 23:25:44 10° N 23:30:11 57° WNW 23:34:03 14° SW
Meteor 2-5 Rocket 4.4 23:27:46 18° SSE 23:31:51 45° E 23:37:29 10° NNE
Cosmos 2263 Rocket 3.4 23:27:13 10° WSW 23:32:36 41° NW 23:38:00 10° NNE
Cosmos 2034 Rocket 4.0 23:27:03 10° N 23:33:18 86° ENE 23:37:59 19° S
H-2A R/B 4.5 23:32:18 10° ESE 23:34:51 18° ENE 23:37:24 10° NNE
Cosmos 1833 Rocket 3.8 23:31:40 10° NNW 23:37:00 41° NE 23:42:18 10° ESE
ASTEX 1 4.3 23:32:52 10° N 23:37:33 43° WNW 23:41:43 13° SW
Cosmos 1908 Rocket 3.6 23:34:57 10° NNW 23:39:20 76° W 23:42:02 23° S
SeaSat 1 2.4 23:37:33 18° SSE 23:41:16 85° WSW 23:46:13 10° NNW
Cosmos 1943 4.3 23:36:23 10° NW 23:41:20 31° WSW 23:44:50 17° SSW
Aureole 3 Rocket 3.6 23:38:46 10° NNW 23:41:35 31° W 23:43:24 19° SW
USA 305 2.4 23:44:27 10° W 23:47:49 60° N 23:50:16 10° ENE
Cosmos 1763 Rocket 4.5 23:44:40 10° NW 23:49:16 33° WSW 23:52:18 18° SSW
Cosmos 1271 Rocket 2.6 23:50:19 24° SSW 23:52:23 76° WNW 23:56:01 10° N
NOSS 2-1 (D) 3.2 23:50:51 10° NW 23:54:14 65° SW 23:57:18 18° SSE
